Regional Weather Roundup
Issued by NWS

Home | Current Version | Previous Version | Text Only | Print | Product List | Glossary Off
Versions: 1 2 3 4 5 6 7 8 9 10 11 12 13 14 15 16 17 18 19 20 21 22 23 24 25 26 27 28 29 30 31 32 33 34 35 36 37 38 39 40 41 42 43 44 45 46 47 48 49 50

000
ASUS43 KLOT 051821
RWRIL

ILLINOIS REGIONAL WEATHER ROUNDUP
NATIONAL WEATHER SERVICE CHICAGO/ROMEOVILLE IL
100 PM CDT TUE MAY 05 2015

NOTE: "FAIR" INDICATES FEW OR NO CLOUDS BELOW 12,000 FEET WITH NO
SIGNIFICANT WEATHER AND/OR OBSTRUCTIONS TO VISIBILITY.

* THESE STATIONS ARE NOT UNDER NWS QUALITY CONTROL. THEY ALSO MAY NOT
  REPORT WEATHER SUCH AS PRECIPITATION OR FOG.

ILZ001-002-007-009-015-016-024-051900-
NORTHWEST ILLINOIS

CITY           SKY/WX    TMP DP  RH WIND       PRES   REMARKS
MOLINE         PTSUNNY   69  62  78 NE9       30.16F HAZE
6HR MIN TEMP:  58; 6HR MAX TEMP:  68;

STERLING*      CLOUDY    63  57  82 E14       30.20S
$$

ILZ003-004-008-010-011-017-018-051900-
NORTH CENTRAL ILLINOIS

CITY           SKY/WX    TMP DP  RH WIND       PRES   REMARKS
ROCKFORD       CLOUDY    54  50  86 NE12      30.25F
6HR MIN TEMP:  53; 6HR MAX TEMP:  55; 6HR PCP:  0.01;

FREEPORT*      CLOUDY    53  51  94 E12       30.25R FOG
ROCHELLE*      CLOUDY    56  55  96 NE12      30.22F FOG
DE KALB*       CLOUDY    54  52  94 NE12      30.23F FOG
PERU*          CLOUDY    65  62  91 E8        30.19S FOG
$$

ILZ005-006-012>014-019>023-051900-
NORTHEAST ILLINOIS

CITY           SKY/WX    TMP DP  RH WIND       PRES   REMARKS
CHICAGO-OHARE  FOG       50  49  96 NE10      30.23F VSB 1
6HR MIN TEMP:  50; 6HR MAX TEMP:  52; 6HR PCP:  0.02;

CHICAGO-MIDWAY CLOUDY    56  52  86 N9        30.22F FOG
6HR MIN TEMP:  52; 6HR MAX TEMP:  59; 6HR PCP:  0.01;

AURORA         CLOUDY    58  53  84 NE13      30.21F HAZE
6HR MIN TEMP:  54; 6HR MAX TEMP:  60; 6HR PCP:  0.02;

LANSING*       CLOUDY    57  54  89 N6        30.21F FOG
JOLIET*        CLOUDY    65  61  86 N9        30.20S
WAUKEGAN       CLOUDY    47  46  97 NE9       30.26S FOG
6HR MIN TEMP:  46; 6HR MAX TEMP:  48; 6HR PCP:  0.07;

DUPAGE AIRPORT CLOUDY    55  52  89 N12       30.22F FOG
6HR MIN TEMP:  53; 6HR MAX TEMP:  55; 6HR PCP:  0.02;

KANKAKEE*      CLOUDY    67  66  94 NE7       30.18F FOG
WHEELING       CLOUDY    49  47  93 NE7       30.26F FOG
6HR MIN TEMP:  49; 6HR MAX TEMP:  50; 6HR PCP:  0.05;

MORRIS*        CLOUDY    66  62  87 NE7       30.18R FOG
ROMEOVILLE*    CLOUDY    63  58  85 NE9       30.21S HAZE
NORTHERLY ISL    N/A     48  47  96 N12         N/A
$$

LMZ740>746-051900-
SOUTHERN LAKE MICHIGAN

STATION/POSITION SKY/WX   TEMP    WIND        PRES    VSBY  WAVE
                          AIR SEA DIR/SP/G                  HT/PER
                          (F)     (DEG/KT/KT) (MB)    (MI)  (FT/S)
HARRISON CRIB              45     340/ 15/ 17   N/A
BURNHAM HARBOR             48     350/ 11/ 12   N/A
CALUMET HARBOR             48     320/  6/  7   N/A
BURNS HARBOR               57     260/  7/  8 1024.0R
MICHIGAN CITY              51      20/  9/ 10   N/A
MICHIGAN CITY 6N           49 49   30/  8/ 12   N/A           1/ 3
ST. JOSEPH                 54 49   80/  8/ 10   N/A           1/ 3
$$

ILZ025>027-034>036-040-047-049-050-058-095>099-051900-
WEST-CENTRAL ILLINOIS

CITY           SKY/WX    TMP DP  RH WIND       PRES   REMARKS
QUINCY         MOSUNNY   79  58  48 VRB6      30.14F HX  80
GALESBURG*     CLOUDY    77  65  66 S3        30.15S
MACOMB*        MOSUNNY   77  64  62 SW9       30.16F
JACKSONVILLE*  MOSUNNY   84  55  36 S9G17     30.14F HX  83
PITTSFIELD*    MOSUNNY   82  56  40 SW12      30.15F HX  82
$$

ILZ028>032-037-038-041>044-048-051>054-059>061-051900-
CENTRAL ILLINOIS

CITY           SKY/WX    TMP DP  RH WIND       PRES   REMARKS
PONTIAC        CLOUDY    75  67  76 E3        30.18S
BLOOMINGTON    MOSUNNY   79  64  59 W13       30.17F HX  81
DECATUR        PTSUNNY   81  57  43 SW8       30.16F HX  81
PEORIA         PTSUNNY   80  65  59 CALM      30.15F HX  82
6HR MIN TEMP:  63; 6HR MAX TEMP:  80;

LACON*         PTSUNNY   75  64  68 NE5       30.14F
LINCOLN*       PTSUNNY   82  60  46 CALM      30.13F HX  82
SPRINGFIELD    MOSUNNY   83  56  39 SW9       30.14F HX  82
6HR MIN TEMP:  65; 6HR MAX TEMP:  85;

TAYLORVILLE    PTSUNNY   82  54  36 S14       30.15F HX  81
$$

ILZ033-039-045-046-055>057-062-063-051900-
EAST-CENTRAL ILLINOIS

CITY           SKY/WX    TMP DP  RH WIND       PRES   REMARKS
CHAMPAIGN      MOSUNNY   86  54  33 SW18      30.16F HX  84
DANVILLE*      MOSUNNY   81  57  44 SW15G23   30.15F HX  81
RANTOUL*       SUNNY     82  62  51 SW14G21   30.16F HX  83
MATTOON        SUNNY     81  53  37 SW12      30.18F HX  80
PARIS*         MOSUNNY   84  51  31 SW18G24   30.19F HX  82
$$

ILZ079-100>102-051900-
SOUTHWEST ILLINOIS

CITY           SKY/WX    TMP DP  RH WIND       PRES   REMARKS
ALTON          PTSUNNY   81  55  41 SW12      30.16F HX  80
BELLEVILLE     PTSUNNY   82  60  47 VRB2      30.16F HX  82
CAHOKIA*       MOSUNNY   81  57  43 VRB6      30.16F HX  81
SPARTA*        MOSUNNY   80  59  48 SW9       30.19F HX  81
$$

ILZ064>066-069>071-074>076-080>082-084>086-088>090-092>094-051900-
SOUTH-CENTRAL ILLINOIS

CITY           SKY/WX    TMP DP  RH WIND       PRES   REMARKS
CARBONDALE     MOSUNNY   82  57  42 S12G22    30.19F HX  82
6HR MIN TEMP:  58; 6HR MAX TEMP:  84;

CAIRO*         SUNNY     83  58  41 S13       30.20F HX  83
EFFINGHAM*     MOSUNNY   83  45  26 S8        30.20F HX  81
MARION         PTSUNNY   84  59  42 S9        30.21F HX  84
MT. VERNON     PTSUNNY  N/A N/A N/A SW13G18   30.20F
CENTRALIA*     MOSUNNY   83  52  33 SW9G16    30.19F HX  82
SALEM*         MOSUNNY   85  49  28 S9        30.19F HX  83
METROPOLIS*    MOSUNNY   83  56  40 S3        30.20F HX  82
$$

ILZ067-068-072-073-078-083-087-091-051900-
SOUTHEAST ILLINOIS

CITY           SKY/WX    TMP DP  RH WIND       PRES   REMARKS
LAWRENCEVILLE  MOSUNNY   84  52  33 SW13G21   30.21F HX  82
FLORA*         MOSUNNY   82  54  38 SW8       30.20F HX  81
FAIRFIELD*     CLOUDY    80  58  47 SW5       30.19F HX  80
HARRISBURG*    SUNNY     83  54  36 SW6       30.22F HX  82
ROBINSON*      MOSUNNY   83  48  29 SW10G18   30.21F HX  81
CARMI*         MOSUNNY   82  48  30 SW9       30.21F HX  81
$$

ABBREVIATIONS USED IN REMARKS
   TC - TEMPERATURE IN CELSIUS
  WCI - WIND CHILL INDEX
   HX - HEAT INDEX
  VSB - VISIBILITY
$$



USA.gov is the U.S. government's official web portal to all federal, state and local government web resources and services.